Weather History for West Palm Beach, FL

Change the Weather History Date:

Monday, October 31, 2011

  Actual Average Record
Temperature  
Mean Temperature 76 °F 76 °F  
Max Temperature 82 °F 83 °F 89 °F (1949)
Min Temperature 70 °F 69 °F 53 °F (2012)
Degree Days  
Heating Degree Days 0 0  
Month to date heating degree days 0 0  
Since 1 July heating degree days 0 1  
Cooling Degree Days 11 11  
Month to date cooling degree days 397 413  
Year to date cooling degree days 4289 3621  
Growing Degree Days 26 (Base 50)    
Moisture  
Dew Point 72 °F    
Average Humidity 90    
Maximum Humidity 100    
Minimum Humidity 79    
Precipitation  
Precipitation 1.89 in 0.13 in 4.95 in (1965)
Month to date precipitation 9.89 5.13  
Year to date precipitation 45.66 54.20  
Snow  
Snow 0.00 in - - ()
Month to date snowfall 0.0  
Since 1 July snowfall 0.0  
Since 1 September snowfall 0.0  
Snow Depth 0.00 in    
Sea Level Pressure  
Sea Level Pressure 29.95 in    
Wind  
Wind Speed 10 mph (NW)    
Max Wind Speed 21 mph    
Max Gust Speed 26 mph    
Visibility 8 miles    
Events Fog , Rain , Thunderstorm    
T = Trace of Precipitation, MM = Missing Value Source: NWS Daily Summary

Daily Weather History Graph

Daily Weather History Graph

Search for Another Location

Airport:

Trip Planner

Search our weather history database for the weather conditions in past years. The results will help you decide how hot, cold, wet, or windy it might be!

Date:

Astronomy

Oct. 31, 2011 Rise Set
Actual Time 7:29 AM EDT 6:38 PM EDT
Civil Twilight 7:05 AM EDT 7:02 PM EDT
Nautical Twilight 6:37 AM EDT 7:29 PM EDT
Astronomical Twilight 6:10 AM EDT 7:56 PM EDT
Moon 12:23 PM EDT (10/31) 11:22 PM EDT (10/31)
Length of Visible Light 11h 57m
Length of Day
11h 09m
Waxing Crescent, 29% of the Moon is Illuminated
Oct 31
Waxing Crescent
Nov 2
First Quarter
Nov 10
Full
Nov 18
Last Quarter
Nov 25
New

Hourly Weather History & Observations

Time (EDT) Temp. Heat Index Dew Point Humidity Pressure Visibility Wind Dir Wind Speed Gust Speed Precip Events Conditions
12:27 AM 75.2 °F - 71.6 °F 89% 30.01 in 10.0 mi ENE 18.4 mph 24.2 mph 0.00 in   Overcast
12:53 AM 75.0 °F - 73.0 °F 94% 30.00 in 10.0 mi East 17.3 mph 26.5 mph 0.00 in   Overcast
1:53 AM 75.9 °F - 73.0 °F 91% 29.99 in 10.0 mi East 13.8 mph 24.2 mph N/A   Overcast
2:35 AM 75.2 °F - 73.4 °F 94% 29.98 in 10.0 mi East 18.4 mph - N/A   Overcast
2:53 AM 75.9 °F - 73.0 °F 91% 29.98 in 10.0 mi East 16.1 mph 24.2 mph 0.00 in Rain Light Rain
3:53 AM 75.9 °F - 73.0 °F 91% 29.96 in 10.0 mi East 17.3 mph 23.0 mph 0.00 in   Overcast
4:53 AM 75.9 °F - 73.0 °F 91% 29.96 in 10.0 mi East 19.6 mph - N/A   Overcast
5:53 AM 77.0 °F - 73.9 °F 90% 29.95 in 10.0 mi East 15.0 mph - N/A   Overcast
6:53 AM 75.9 °F - 73.0 °F 91% 29.96 in 10.0 mi ESE 11.5 mph - 0.01 in Rain Light Rain
7:21 AM 75.2 °F - 73.4 °F 94% 29.95 in 10.0 mi ESE 15.0 mph - 0.03 in   Overcast
7:53 AM 77.0 °F - 73.9 °F 90% 29.95 in 10.0 mi SE 8.1 mph - 0.03 in   Overcast
8:53 AM 75.9 °F - 73.9 °F 94% 29.94 in 10.0 mi Calm Calm - 0.01 in   Mostly Cloudy
9:53 AM 78.1 °F - 73.0 °F 84% 29.96 in 10.0 mi South 8.1 mph - N/A   Mostly Cloudy
10:53 AM 80.1 °F 84.2 °F 73.0 °F 79% 29.96 in 10.0 mi SSW 13.8 mph - N/A   Mostly Cloudy
11:53 AM 81.0 °F 86.2 °F 73.9 °F 79% 29.95 in 10.0 mi SSW 12.7 mph - N/A   Mostly Cloudy
12:38 PM 80.6 °F 85.4 °F 73.4 °F 79% 29.95 in 10.0 mi SW 9.2 mph - N/A   Overcast
12:53 PM 81.0 °F 86.7 °F 75.0 °F 82% 29.94 in 10.0 mi SW 9.2 mph - N/A   Overcast
1:53 PM 80.1 °F 85.4 °F 75.9 °F 87% 29.90 in 10.0 mi WSW 6.9 mph - 0.09 in   Overcast
2:11 PM 78.8 °F - 75.2 °F 89% 29.90 in 1.5 mi West 13.8 mph - 0.08 in Rain Heavy Rain
2:29 PM 77.0 °F - 75.2 °F 94% 29.89 in 5.0 mi SSW 5.8 mph - 0.35 in Rain Light Rain
2:53 PM 78.1 °F - 75.9 °F 93% 29.89 in 10.0 mi SSW 5.8 mph - 0.36 in Rain , Thunderstorm Light Thunderstorms and Rain
3:09 PM 77.0 °F - 75.2 °F 94% 29.89 in 1.5 mi WSW 9.2 mph - 0.03 in Rain , Thunderstorm Heavy Thunderstorms and Rain
3:32 PM 75.2 °F - 75.2 °F 100% 29.90 in 1.5 mi West 8.1 mph - 0.19 in Rain Heavy Rain
3:44 PM 75.2 °F - 73.4 °F 94% 29.91 in 1.0 mi WNW 13.8 mph - 0.26 in Rain Heavy Rain
3:53 PM 73.9 °F - 73.0 °F 97% 29.93 in 0.2 mi West 15.0 mph 24.2 mph 0.60 in Fog , Rain Heavy Rain
3:58 PM 73.4 °F - 73.4 °F 100% 29.93 in 0.2 mi WNW 19.6 mph 24.2 mph 0.18 in Fog , Rain , Thunderstorm Heavy Thunderstorms and Rain
4:08 PM 71.6 °F - 71.6 °F 100% 29.92 in 0.2 mi North 17.3 mph - 0.51 in Fog , Rain , Thunderstorm Heavy Thunderstorms and Rain
4:17 PM 71.6 °F - 71.6 °F 100% 29.92 in 2.0 mi North 11.5 mph - 0.71 in Rain , Thunderstorm Heavy Thunderstorms and Rain
4:28 PM 71.6 °F - 71.6 °F 100% 29.93 in 4.0 mi NNW 11.5 mph - 0.73 in Rain Light Rain
4:40 PM 71.6 °F - 71.6 °F 100% 29.93 in 1.5 mi NNW 9.2 mph - 0.75 in Rain Heavy Rain
4:53 PM 71.1 °F - 71.1 °F 100% 29.93 in 1.8 mi North 11.5 mph - 0.79 in Rain Heavy Rain
4:57 PM 71.6 °F - 71.6 °F 100% 29.93 in 6.0 mi North 10.4 mph - 0.00 in Rain Light Rain
5:53 PM 72.0 °F - 70.0 °F 93% 29.94 in 10.0 mi NNW 10.4 mph - 0.00 in   Mostly Cloudy
6:35 PM 71.6 °F - 69.8 °F 94% 29.94 in 10.0 mi NNW 11.5 mph - N/A   Mostly Cloudy
6:53 PM 72.0 °F - 69.1 °F 91% 29.94 in 10.0 mi NNW 9.2 mph - N/A   Mostly Cloudy
7:47 PM 71.6 °F - 69.8 °F 94% 29.96 in 10.0 mi NW 6.9 mph - N/A   Mostly Cloudy
7:53 PM 72.0 °F - 69.1 °F 91% 29.96 in 10.0 mi NW 4.6 mph - N/A   Mostly Cloudy
8:53 PM 73.0 °F - 70.0 °F 90% 29.97 in 10.0 mi North 9.2 mph - N/A   Overcast
9:53 PM 73.9 °F - 70.0 °F 87% 29.97 in 10.0 mi NNW 8.1 mph - N/A   Mostly Cloudy
10:16 PM 73.4 °F - 69.8 °F 88% 29.97 in 10.0 mi NNW 8.1 mph - N/A   Mostly Cloudy
10:53 PM 72.0 °F - 70.0 °F 93% 29.98 in 10.0 mi NW 8.1 mph - N/A   Mostly Cloudy
11:53 PM 71.1 °F - 69.1 °F 93% 29.99 in 10.0 mi NW 8.1 mph - N/A   Mostly Cloudy